Weather History for Lordsburg, NM

Change the Weather History Date:

Saturday, October 27, 2012

  Actual Average Record
Temperature  
Mean Temperature 55 °F -  
Max Temperature 68 °F 74 °F 77 °F (2014)
Min Temperature 42 °F 38 °F 50 °F (2013)
Degree Days  
Heating Degree Days 10    
Growing Degree Days 5 (Base 50)    
Moisture  
Dew Point 31 °F    
Average Humidity 43    
Maximum Humidity 61    
Minimum Humidity 26    
Precipitation  
Precipitation 0.00 in - - ()
Sea Level Pressure  
Sea Level Pressure 30.14 in    
Wind  
Wind Speed 12 mph ()    
Max Wind Speed 21 mph    
Max Gust Speed 28 mph    
Visibility 10.0 miles    
Events      
Averages and records for this station are not official NWS values.
T = Trace of Precipitation, MM = Missing Value Source: Averaged Metar Reports

Daily Weather History Graph

Daily Weather History Graph

Search for Another Location

Airport:

Trip Planner

Search our weather history database for the weather conditions in past years. The results will help you decide how hot, cold, wet, or windy it might be!

Date:

Astronomy

Oct. 27, 2012 Rise Set
Actual Time 7:28 AM MDT 6:28 PM MDT
Civil Twilight 7:03 AM MDT 6:53 PM MDT
Nautical Twilight 6:34 AM MDT 7:22 PM MDT
Astronomical Twilight 6:05 AM MDT 7:51 PM MDT
Moon 5:12 PM MDT (10/27) 5:31 AM MDT (10/27)
Length of Visible Light 11h 50m
Length of Day
11h 00m
Waxing Gibbous, 96% of the Moon is Illuminated
Oct 27
Waxing Gibbous
Oct 29
Full
Nov 6
Last Quarter
Nov 13
New
Nov 20
First Quarter

Hourly Weather History & Observations

Time (MDT) Temp. Windchill Dew Point Humidity Pressure Visibility Wind Dir Wind Speed Gust Speed Precip Events Conditions
12:15 AM 50.0 °F - 32.0 °F 50% 30.19 in 10.0 mi ESE 13.8 mph 20.7 mph N/A   Clear
12:35 AM 50.0 °F - 32.0 °F 50% 30.19 in 10.0 mi ESE 15.0 mph 21.9 mph N/A   Clear
12:55 AM 48.2 °F - 30.2 °F 50% 30.19 in 10.0 mi ESE 15.0 mph - N/A   Clear
1:15 AM 46.4 °F 39.8 °F 32.0 °F 57% 30.19 in 10.0 mi ESE 16.1 mph 20.7 mph N/A   Clear
1:35 AM 46.4 °F 39.5 °F 32.0 °F 57% 30.19 in 10.0 mi ESE 17.3 mph 23.0 mph N/A   Clear
1:55 AM 46.4 °F 40.4 °F 30.2 °F 53% 30.19 in 10.0 mi ESE 13.8 mph 21.9 mph N/A   Clear
2:15 AM 46.4 °F 40.4 °F 30.2 °F 53% 30.19 in 10.0 mi ESE 13.8 mph 19.6 mph N/A   Clear
2:35 AM 44.6 °F 37.8 °F 30.2 °F 57% 30.19 in 10.0 mi SE 15.0 mph - N/A   Clear
2:55 AM 44.6 °F 37.8 °F 30.2 °F 57% 30.19 in 10.0 mi SE 15.0 mph 19.6 mph N/A   Clear
3:15 AM 44.6 °F 38.1 °F 30.2 °F 57% 30.18 in 10.0 mi SE 13.8 mph 18.4 mph N/A   Clear
3:35 AM 44.6 °F 38.4 °F 30.2 °F 57% 30.18 in 10.0 mi SE 12.7 mph 18.4 mph N/A   Clear
3:55 AM 42.8 °F 36.6 °F 28.4 °F 57% 30.18 in 10.0 mi SSE 11.5 mph - N/A   Clear
4:15 AM 42.8 °F 36.6 °F 30.2 °F 61% 30.18 in 10.0 mi SE 11.5 mph - N/A   Clear
4:35 AM 42.8 °F 36.6 °F 30.2 °F 61% 30.18 in 10.0 mi SE 11.5 mph - N/A   Clear
4:55 AM 44.6 °F 39.2 °F 30.2 °F 57% 30.18 in 10.0 mi SE 10.4 mph - N/A   Clear
5:15 AM 44.6 °F 37.4 °F 30.2 °F 57% 30.18 in 10.0 mi ESE 16.1 mph 21.9 mph N/A   Clear
5:55 AM 42.8 °F 35.8 °F 28.4 °F 57% 30.19 in 10.0 mi SE 13.8 mph - N/A   Clear
6:15 AM 42.8 °F 36.2 °F 28.4 °F 57% 30.19 in 10.0 mi ESE 12.7 mph 18.4 mph N/A   Clear
6:35 AM 42.8 °F 36.2 °F 28.4 °F 57% 30.19 in 10.0 mi ESE 12.7 mph - N/A   Clear
6:55 AM 42.8 °F 37.0 °F 28.4 °F 57% 30.19 in 10.0 mi SE 10.4 mph - N/A   Clear
7:15 AM 42.8 °F 36.6 °F 28.4 °F 57% 30.19 in 10.0 mi SE 11.5 mph - N/A   Clear
7:35 AM 42.8 °F 38.6 °F 28.4 °F 57% 30.19 in 10.0 mi SSE 6.9 mph - N/A   Clear
8:15 AM 44.6 °F 39.2 °F 28.4 °F 53% 30.20 in 10.0 mi SE 10.4 mph - N/A   Clear
8:35 AM 46.4 °F 39.8 °F 30.2 °F 53% 30.21 in 10.0 mi ESE 16.1 mph 20.7 mph N/A   Clear
9:15 AM 50.0 °F - 30.2 °F 47% 30.21 in 10.0 mi ESE 20.7 mph 27.6 mph N/A   Clear
9:35 AM 51.8 °F - 30.2 °F 44% 30.22 in 10.0 mi ESE 19.6 mph 23.0 mph N/A   Clear
9:55 AM 53.6 °F - 30.2 °F 41% 30.21 in 10.0 mi ESE 18.4 mph 25.3 mph N/A   Clear
10:15 AM 53.6 °F - 30.2 °F 41% 30.21 in 10.0 mi SE 18.4 mph 23.0 mph N/A   Clear
10:35 AM 55.4 °F - 30.2 °F 38% 30.21 in 10.0 mi SE 17.3 mph 25.3 mph N/A   Clear
11:15 AM 59.0 °F - 32.0 °F 36% 30.21 in 10.0 mi ESE 15.0 mph 23.0 mph N/A   Clear
11:35 AM 59.0 °F - 32.0 °F 36% 30.19 in 10.0 mi SE 13.8 mph 20.7 mph N/A   Clear
11:55 AM 60.8 °F - 32.0 °F 34% 30.19 in 10.0 mi ESE 11.5 mph 21.9 mph N/A   Clear
12:15 PM 60.8 °F - 32.0 °F 34% 30.18 in 10.0 mi ESE 12.7 mph 19.6 mph N/A   Clear
12:35 PM 60.8 °F - 32.0 °F 34% 30.16 in 10.0 mi ESE 17.3 mph 21.9 mph N/A   Clear
12:55 PM 62.6 °F - 32.0 °F 32% 30.14 in 10.0 mi SE 15.0 mph 21.9 mph N/A   Clear
1:15 PM 62.6 °F - 32.0 °F 32% 30.13 in 10.0 mi SE 15.0 mph 21.9 mph N/A   Clear
1:35 PM 64.4 °F - 33.8 °F 32% 30.12 in 10.0 mi SE 16.1 mph 21.9 mph N/A   Clear
1:55 PM 64.4 °F - 32.0 °F 30% 30.10 in 10.0 mi ESE 12.7 mph 19.6 mph N/A   Clear
2:15 PM 64.4 °F - 32.0 °F 30% 30.10 in 10.0 mi SE 9.2 mph 18.4 mph N/A   Clear
2:35 PM 64.4 °F - 32.0 °F 30% 30.08 in 10.0 mi SE 15.0 mph 20.7 mph N/A   Clear
2:55 PM 64.4 °F - 32.0 °F 30% 30.07 in 10.0 mi SE 11.5 mph 17.3 mph N/A   Clear
3:15 PM 66.2 °F - 32.0 °F 28% 30.07 in 10.0 mi SE 13.8 mph 17.3 mph N/A   Clear
3:35 PM 68.0 °F - 32.0 °F 26% 30.07 in 10.0 mi SE 8.1 mph - N/A   Clear
3:55 PM 68.0 °F - 32.0 °F 26% 30.07 in 10.0 mi SE 10.4 mph 16.1 mph N/A   Clear
4:15 PM 68.0 °F - 32.0 °F 26% 30.06 in 10.0 mi SE 12.7 mph 16.1 mph N/A   Clear
4:35 PM 68.0 °F - 32.0 °F 26% 30.06 in 10.0 mi SE 9.2 mph - N/A   Clear
4:55 PM 68.0 °F - 32.0 °F 26% 30.06 in 10.0 mi SE 10.4 mph - N/A   Clear
5:15 PM 68.0 °F - 32.0 °F 26% 30.05 in 10.0 mi ESE 6.9 mph - N/A   Clear
5:35 PM 68.0 °F - 32.0 °F 26% 30.05 in 10.0 mi ESE 10.4 mph - N/A   Clear
5:55 PM 66.2 °F - 32.0 °F 28% 30.05 in 10.0 mi ESE 6.9 mph - N/A   Clear
6:15 PM 64.4 °F - 32.0 °F 30% 30.06 in 10.0 mi ESE 5.8 mph - N/A   Clear
6:35 PM 60.8 °F - 32.0 °F 34% 30.06 in 10.0 mi SE 4.6 mph - N/A   Clear
6:55 PM 59.0 °F - 32.0 °F 36% 30.07 in 10.0 mi SE 5.8 mph - N/A   Clear
7:15 PM 55.4 °F - 30.2 °F 38% 30.08 in 10.0 mi SE 4.6 mph - N/A   Clear
7:35 PM 53.6 °F - 30.2 °F 41% 30.08 in 10.0 mi SSE 4.6 mph - N/A   Clear
7:55 PM 53.6 °F - 30.2 °F 41% 30.10 in 10.0 mi SSE 5.8 mph - N/A   Clear
8:15 PM 53.6 °F - 30.2 °F 41% 30.10 in 10.0 mi South 5.8 mph - N/A   Clear
8:35 PM 53.6 °F - 30.2 °F 41% 30.10 in 10.0 mi South 6.9 mph - N/A   Clear
8:55 PM 51.8 °F - 30.2 °F 44% 30.11 in 10.0 mi South 6.9 mph - N/A   Clear
9:15 PM 53.6 °F - 30.2 °F 41% 30.11 in 10.0 mi South 8.1 mph - N/A   Clear
9:35 PM 51.8 °F - 30.2 °F 44% 30.12 in 10.0 mi South 8.1 mph - N/A   Clear
10:15 PM 50.0 °F - 30.2 °F 47% 30.13 in 10.0 mi South 6.9 mph - N/A   Clear
10:35 PM 50.0 °F - 30.2 °F 47% 30.14 in 10.0 mi South 6.9 mph - N/A   Clear
10:55 PM 48.2 °F - 30.2 °F 50% 30.14 in 10.0 mi South 6.9 mph - N/A   Clear
11:15 PM 48.2 °F - 30.2 °F 50% 30.14 in 10.0 mi South 6.9 mph - N/A   Clear
11:35 PM 46.4 °F 42.9 °F 30.2 °F 53% 30.14 in 10.0 mi South 6.9 mph - N/A   Clear
11:55 PM 46.4 °F 42.4 °F 30.2 °F 53% 30.14 in 10.0 mi South 8.1 mph - N/A   Clear